Regional Weather Roundup
Issued by NWS

Home | Current Version | Previous Version | Graphics & Text | Print | Product List | Glossary On
Versions: 1 2 3 4 5 6 7 8 9 10 11 12 13 14 15 16 17 18 19 20 21 22 23 24 25 26 27
000
ASUS45 KBOU 170510
RWRCO

WEATHER ROUNDUP FOR COLORADO
NATIONAL WEATHER SERVICE DENVER/BOULDER CO
1000 PM MST TUE JAN 16 2018

NOTE: "FAIR" INDICATES FEW OR NO CLOUDS BELOW 12000 FEET WITH NO
SIGNIFICANT WEATHER AND/OR OBSTRUCTIONS TO VISIBILITY.

COZ001>005-013-030-031-170600-
...NORTHWEST COLORADO...

CITY           SKY/WX    TMP DP  RH WIND       PRES   REMARKS
CRAIG          FAIR       6   0  76 SE3       30.35S
HAYDEN         FAIR      14   3  61 E14       30.35R WCI  -1
MEEKER         FAIR      20  11  68 E6        30.35R WCI  12
RABBIT EARS PA FAIR      14   7  73 W10G20    30.30R WCI   1
STEAMBOAT SPGS FAIR       6   1  77 CALM      30.35R
WALDEN         FAIR       1  -6  71 SE8       30.31S WCI -12
$$

COZ006>008-011-170600-
...WEST CENTRAL VALLEYS...

CITY           SKY/WX    TMP DP  RH WIND       PRES   REMARKS
GRAND JUNCTION FAIR      26  15  63 E5        30.37R WCI  20
MONTROSE       FAIR      20  13  74 S7        30.39R WCI  11
EAGLE          FAIR      12   3  67 CALM      30.41R
RIFLE          FAIR      22  15  75 CALM      30.39R
DELTA          FAIR      25  13  60 NE5       30.39R WCI  20
NUCLA          FAIR      25  12  58 E7        30.40R WCI  17
$$

COZ017>023-064>068-170600-
...SOUTHWEST COLORADO...

CITY           SKY/WX    TMP DP  RH WIND       PRES   REMARKS
DURANGO        FAIR      23  18  81 NE6       30.35R WCI  16
CORTEZ         FAIR      21  18  88 E8        30.36R WCI  11
PAGOSA SPRINGS FAIR      23  18  82 CALM      30.35R
TELLURIDE      FAIR      21   2  44 E5        30.36R WCI  15
WOLF CREEK PAS FAIR      21  -6  30 CALM      30.37S
$$

COZ009-010-012-014-032>034-037-058>063-170600-
...CENTRAL COLORADO...

CITY           SKY/WX    TMP DP  RH WIND       PRES   REMARKS
ASPEN          FAIR      14   0  53 S7        30.32R WCI   4
BUENA VISTA    FAIR      10   0  63 W7        30.30R WCI  -1
COPPER MTN     NOT AVBL
BERTHOUD PASS  FAIR      14   3  62 NW24      30.28F WCI  -5
COTTONWOOD PAS   N/A     30  -4  22 CALM      30.28S
GUNNISON       FAIR       9   5  84 CALM      30.37R
KREMMLING      FAIR       5   0  78 CALM      30.41R
LEADVILLE      FAIR      12 -11  35 NE7       30.28S WCI   1
MONARCH PASS   FAIR      18  -8  32 W14G22    30.41R WCI   4
SALIDA         FAIR      20   9  62 N3        30.37S
SUNLIGHT       FAIR      19  -6  32 W7        30.38R WCI  10
WILKERSON PASS FAIR      23 -20  14 N8        30.30S WCI  14
$$

COZ069>075-170600-
...SAN LUIS VALLEY/SANGRE DE CRISTO MOUNTAINS...

CITY           SKY/WX    TMP DP  RH WIND       PRES   REMARKS
ALAMOSA        FAIR       7   1  76 W3        30.34R
DEL NORTE      FAIR      10   5  79 W8        30.34S WCI  -1
LA VETA PASS   FAIR      16  12  86 SW20        N/A  WCI  -1
SAGUACHE       FAIR       9   5  85 NW8       30.35S WCI  -4
$$

COZ035-036-038>040-170600-
...NORTHERN COLORADO FRONT RANGE...

CITY           SKY/WX    TMP DP  RH WIND       PRES   REMARKS
DENVER INTL AP FAIR      20   8  60 SW7       30.23F WCI  11
DMNS CITY PARK NOT AVBL
AURORA         CLEAR     22   6  50 S10       30.23F WCI  11
FRONT RANGE AP FAIR      21  12  68 S6        30.24F WCI  13
ERIE MUNI ARPT FAIR      12   9  89 SW3       30.30F
BOULDER MUN AP FAIR      23  19  86 SW3       30.24F
CENTENNIAL     FAIR      20   6  55 SE8       30.22F WCI  10
BROOMFIELD     CLEAR     21  14  73 CALM      30.24S
FORT COLLINS   FAIR      14  10  84 NE6       30.26F WCI   5
LONGMONT       FAIR      14   9  79 CALM      30.27F
$$

COZ041-046-047-076>085-087-088-170600-
...PIKES PEAK/PALMER DIVIDE AND SOUTHERN FOOTHILLS...

CITY           SKY/WX    TMP DP  RH WIND       PRES   REMARKS
COLO. SPRINGS  FAIR      13   5  70 N3        30.29F
A. F. ACADEMY  FAIR       8   0  71 N7        30.26F WCI  -4
SCHRIEVER AFB  FAIR      11   7  81 W8        30.29F WCI   0
CHEYENNE MTN   FAIR      20   6  56 CALM      30.21F
ELLICOTT         N/A    N/A N/A N/A CALM        N/A
FALCON         FAIR      17   5  60 W9        30.26F WCI   5
FORT CARSON    FAIR      12   5  73 NW5       30.29F WCI   4
LIMON          FAIR       8   2  76 SE5       30.28F WCI   0
MONUMENT HILL  FAIR      19   7  58 S9        30.24S WCI   9
CANON CITY     FAIR      19  12  73 CALM      30.32F
WALSENBURG     FAIR      18  16  93 W3        30.30F
TRINIDAD       FAIR      24  17  74 W14       30.31F WCI  12
$$

COZ042>045-048>051-090-091-170600-
...NORTHEAST COLORADO...

CITY           SKY/WX    TMP DP  RH WIND       PRES   REMARKS
GREELEY ARPT   FAIR       7   2  80 NW6       30.28F WCI  -3
AKRON          FAIR      19   7  59 SW13      30.26F WCI   6
BURLINGTON     FAIR      13   1  59 SW12      30.35F WCI  -1
WRAY           FAIR      18   3  53 SW9       30.34F WCI   6
YUMA           FAIR       9   0  66 SW8       30.29F WCI  -4
STERLING       FAIR      12   1  62 SW6       30.29S WCI   3
HOLYOKE        FAIR       9   0  66 SW3       30.33F
FORT MORGAN    FAIR      14  -1  50 N5        30.27F WCI   6
$$

COZ086-089-092>099-170600-
...SOUTHEAST COLORADO...

CITY           SKY/WX    TMP DP  RH WIND       PRES   REMARKS
PUEBLO         FAIR      10   5  80 CALM      30.35F
LA JUNTA       FAIR      12  -3  51 NE6       30.37S WCI   3
LAMAR          FAIR       6  -4  63 NE5       30.39F WCI  -3
SPRINGFIELD      N/A      7  -1  70 SW5       30.39F WCI  -2
$$




USA.gov is the U.S. government's official web portal to all federal, state and local government web resources and services.